Location: Unspecified
(29.9680°N, 0.0000°E)
Time: 22:35:07
(UTC+00:00)

Vanguard 1 Rocket - Pass Details

Date: 22 June 2019
Orbit: 651 x 4225 km, 34.3° (Epoch: 16 July)

Event Time Altitude Azimuth Distance (km) Brightness Sun altitude
Rises 19:58:29 0° 277° (W) 6,391 12.9 -10.8°
Reaches altitude 10° 20:03:35 10° 280° (W) 4,780 12.2 -11.7°
Maximum altitude 20:15:12 67° 2° (N) 1,393 8.4 -13.7°
Enters shadow 20:21:15 10° 85° (E) 2,592 9.3 -14.8°
